SCP
0 0 0 0 0 0 0 0 0 0 0 0 0 0 0 0 0 0 0 0 0 0 1 1 1 1 1 1 1 1 1 1 1 1 1 1 1 1 0 0 0 0 0 0 0 0 0 0 0
0 0 0 0 0 0 0 0 0 0 0 0 0 0 0 0 0 0 0 0 0 0 1 1 1 1 1 1 1 1 1 1 1 1 1 1 1 1 0 0 0 0 0 0 0 0 0 0 0
0 0 0 0 0 0 0 0 0 0 0 0 0 0 0 0 0 0 0 0 0 0 1 1 1 1 1 1 1 1 1 1 1 1 1 1 1 1 0 0 0 0 0 0 0 0 0 0 0
0 0 0 0 0 0 0 0 0 0 0 0 0 0 0 0 0 0 0 0 0 0 1 1 1 1 1 1 1 1 1 1 1 1 1 1 1 1 0 0 0 0 0 0 0 0 0 0 0
0 0 0 0 0 0 0 0 0 0 0 0 0 0 0 0 0 0 0 0 0 0 1 1 1 1 1 1 1 1 1 1 1 1 1 1 1 1 0 0 0 0 0 0 0 0 0 0 0
0 0 0 0 0 0 0 0 0 0 0 0 0 0 0 0 0 0 0 0 0 1 1 1 1 1 1 1 1 1 1 1 1 1 1 1 1 0 0 0 0 0 0 0 0 0 0 0 0
0 0 0 0 0 0 0 0 0 0 0 0 0 0 0 0 0 0 0 0 0 1 1 1 1 1 1 1 1 1 1 1 1 1 1 1 1 0 0 0 0 0 0 0 0 0 0 0 0
0 0 0 0 0 0 0 0 0 0 0 0 0 0 0 0 1 1 1 1 1 1 1 1 1 1 1 1 1 1 1 1 1 1 1 1 0 0 0 0 0 0 0 0 0 0 0 0 0
0 0 0 0 0 0 0 0 0 0 0 0 0 0 0 1 1 1 1 1 1 1 1 1 1 1 1 1 1 1 1 1 1 1 1 1 0 0 0 0 0 0 0 0 0 0 0 0 0
0 0 0 0 0 0 0 0 0 0 0 0 0 0 0 1 1 1 1 1 1 1 1 1 1 1 1 1 1 1 1 1 1 1 1 1 0 0 0 0 0 0 0 0 0 0 0 0 0
0 0 0 0 0 0 0 0 0 0 0 0 0 0 1 1 1 1 1 1 1 1 1 1 1 1 1 1 1 1 1 1 1 1 1 1 1 0 0 0 0 0 0 0 0 0 0 0 0
-0 -0 -0 0 0 0 0 0 0 0 0 0 0 0 0 1 1 1 1 1 1 1 1 1 1 1 1 1 1 1 1 1 1 1 1 1 1 0 0 0 0 0 0 0 0 0 0 0 0
-0 -0 0 0 0 0 0 0 0 0 0 0 0 0 0 0 0 0 0 1 1 1 1 1 1 1 1 1 1 1 1 1 1 1 1 1 1 1 0 0 0 0 0 0 0 0 0 0 0
-0 0 0 0 0 0 0 0 0 0 0 0 0 0 0 0 0 0 0 0 0 1 1 1 1 1 1 1 0 0 0 0 0 0 0 1 0 0 0 0 0 0 0 0 0 0 0 0 0
0 0 0 0 0 0 0 0 0 0 0 0 0 0 0 0 0 0 0 0 0 0 1 1 1 1 1 1 0 0 0 0 0 0 0 0 0 0 0 0 0 0 0 0 0 0 0 0 0
0 0 0 0 0 0 0 0 0 0 0 0 0 0 0 0 0 0 0 0 0 0 1 1 1 0 0 0 0 0 0 0 0 0 0 0 0 0 0 0 0 0 0 0 0 0 0 0 0
0 0 0 0 0 0 0 0 0 0 0 0 0 0 0 0 0 0 0 0 0 0 0 1 0 0 0 0 0 0 0 0 0 0 0 0 0 0 0 0 0 0 0 0 0 0 0 0 0
0 0 0 0 0 0 0 0 0 0 0 0 0 0 0 0 0 0 0 0 0 0 0 0 0 0 0 0 0 0 0 0 0 0 0 0 0 0 0 0 0 0 0 0 0 0 0 0 0
0 0 0 0 0 0 0 0 0 0 0 0 0 0 0 0 0 0 0 0 0 0 0 0 0 0 0 0 0 0 0 0 0 0 0 0 0 0 0 0 0 0 0 0 0 0 0 0 0
0 0 0 0 0 0 0 0 0 0 0 0 0 0 0 0 0 0 0 0 0 0 0 0 0 0 0 0 0 0 0 0 0 0 0 0 0 0 0 0 0 0 0 0 0 0 0 0 0
0 0 0 0 0 0 0 0 0 0 0 0 0 0 0 0 0 0 0 0 0 0 0 0 0 0 0 0 0 0 0 0 0 0 0 0 0 0 0 0 0 0 0 0 0 0 0 0 0
0 0 0 0 0 0 0 0 0 0 0 0 0 0 0 0 0 0 0 0 0 0 0 0 0 0 0 0 0 0 0 0 0 0 0 0 0 0 0 0 0 0 0 0 0 0 0 0 0
0 0 0 0 0 0 0 0 0 0 0 0 0 0 0 0 0 0 0 0 0 0 0 0 0 0 0 0 0 0 0 0 0 0 0 0 0 0 0 0 0 0 0 0 0 0 0 0 0
0 0 0 0 0 0 0 0 0 0 0 0 0 0 0 0 0 0 0 0 0 0 0 0 0 0 0 0 0 0 0 0 0 0 0 0 0 0 0 0 0 0 0 0 0 0 0 0 0
0 0 0 0 0 0 0 0 0 0 0 0 0 0 0 0 0 0 0 0 0 0 0 0 0 0 0 0 0 0 0 0 0 0 0 0 0 0 0 0 0 0 0 0 0 0 0 0 0
0 0 0 0 0 0 0 0 0 0 0 0 0 0 0 0 0 0 0 0 0 0 0 0 0 0 0 0 0 0 0 0 0 0 0 0 0 0 0 0 0 0 0 0 0 0 0 0 0
0 0 0 0 0 0 0 0 0 0 0 0 0 0 0 0 0 0 -0 0 0 0 0 0 0 0 0 0 0 0 0 0 0 0 0 0 0 0 0 0 0 0 0 0 0 0 0 0 0
0 0 0 -0 0 0 0 0 0 0 0 0 0 0 0 0 0 0 0 0 0 0 0 0 0 0 0 0 0 0 0 0 0 0 0 0 0 0 0 0 0 0 0 0 0 0 0 0 0
0 -0 0 0 0 0 0 0 0 0 0 0 0 0 0 0 0 0 0 0 0 0 0 0 0 0 0 0 0 0 0 0 0 0 0 0 0 0 0 0 0 0 0 0 0 0 0 0 0
0 -0 0 0 0 0 0 0 0 0 0 0 0 0 0 0 0 0 0 0 0 0 0 0 0 0 0 0 0 0 0 0 0 0 0 0 0 0 0 0 0 0 0 0 0 0 0 0 0
Wind_Speed
1 2 2 3 5 5 2 4 3 2 1 1 1 2 4 3 3 3 0 7 9 10 9 11 13 13 14 14 14 14 15 15 15 15 15 14 14 13 12 11 11 10 9 9 8 7 6 6 6
2 2 3 5 5 1 4 3 3 3 2 1 2 2 3 2 2 3 3 6 10 10 8 9 13 13 14 14 14 14 14 14 14 14 14 13 13 12 11 11 10 9 8 8 7 6 5 5 5
2 2 5 5 3 4 3 3 3 2 1 0 1 3 2 1 2 2 2 8 9 9 7 9 14 13 14 14 13 13 14 14 13 13 13 12 12 11 10 10 9 8 7 6 6 5 4 4 4
3 4 5 5 2 4 4 4 3 2 3 1 3 3 2 3 1 3 7 9 9 7 7 8 14 13 13 13 13 13 13 13 12 12 11 11 10 10 9 9 8 7 7 6 5 4 3 3 3
4 5 5 2 3 4 4 4 2 0 0 1 3 3 2 4 4 7 9 9 9 7 5 7 13 12 13 13 13 13 13 12 12 11 10 10 9 9 8 7 7 6 5 5 4 3 3 3 3
5 5 4 1 4 4 4 2 1 0 1 1 3 3 1 2 4 6 7 6 6 7 6 6 11 12 12 12 12 12 12 11 11 10 9 9 8 8 7 6 6 5 5 4 3 3 3 3 2
5 4 3 2 2 4 2 1 1 0 1 0 2 4 1 2 3 6 7 7 6 6 6 5 6 8 10 10 11 10 10 10 10 9 9 8 7 7 6 5 5 4 4 3 3 3 3 3 3
5 5 1 1 2 3 3 2 1 1 1 1 3 5 3 4 6 7 7 6 6 5 4 4 4 5 5 5 10 10 10 9 9 8 8 7 6 5 5 4 3 3 3 3 2 3 3 3 3
4 5 2 4 3 3 2 2 3 1 2 3 2 2 4 10 10 9 6 5 5 4 3 4 4 4 4 4 7 8 8 8 7 6 7 5 2 2 2 2 2 2 2 2 2 2 2 2 3
4 3 5 4 3 2 2 1 1 2 3 3 4 4 8 10 10 9 7 6 6 5 4 3 4 4 4 4 4 3 4 4 4 3 3 2 1 1 1 1 1 1 1 1 2 2 2 1 1
4 5 4 3 3 1 1 1 1 3 1 2 3 5 8 9 8 7 6 5 5 5 5 4 4 4 4 2 2 2 2 2 2 3 2 2 1 0 0 0 1 1 1 1 2 2 1 1 1
3 3 3 2 0 0 1 1 2 1 2 2 4 6 7 7 7 7 6 4 3 3 3 3 4 4 3 2 2 2 2 2 2 2 3 2 1 1 1 1 1 0 0 1 1 1 1 2 2
2 2 1 1 1 1 2 1 2 1 1 3 6 7 6 6 4 3 4 4 4 3 3 3 3 4 3 2 1 2 2 2 2 2 2 3 2 1 1 1 1 1 1 1 1 1 1 2 2
3 1 1 2 1 1 2 1 2 1 1 5 6 5 5 5 5 4 3 3 3 4 4 3 4 4 4 2 1 1 1 1 1 2 2 3 2 2 2 2 2 2 2 2 2 2 2 2 2
1 1 3 2 1 1 2 3 1 2 3 5 4 4 3 3 4 4 4 4 4 4 3 4 4 4 4 3 2 1 1 1 1 2 2 3 3 3 3 2 2 2 2 1 1 1 1 2 2
2 2 2 4 0 1 4 2 2 1 5 3 2 3 3 1 2 2 2 3 3 3 4 4 4 4 4 3 2 1 1 2 1 2 2 3 3 3 3 2 2 2 1 1 1 1 1 2 2
3 0 2 4 2 1 3 2 2 1 4 3 2 2 2 1 1 0 1 1 2 2 3 4 3 3 2 2 2 1 1 1 1 1 1 2 3 3 3 2 2 2 1 1 2 1 1 2 2
3 2 2 3 2 2 2 1 1 1 3 3 2 1 1 0 1 1 1 1 1 2 2 3 3 2 2 2 1 1 0 1 1 1 2 2 2 2 2 2 2 1 1 1 1 1 1 2 2
3 2 2 3 2 1 2 2 1 1 2 2 1 1 0 1 1 0 0 1 2 2 2 2 3 2 2 1 1 1 1 1 1 1 1 2 2 2 2 2 1 1 2 2 2 1 1 1 1
3 1 2 2 1 2 3 2 1 1 1 1 1 1 1 0 1 0 1 1 2 3 2 2 2 2 2 1 1 1 1 1 1 0 1 1 1 2 2 2 1 1 1 1 1 1 1 1 0
2 4 4 3 2 3 3 3 2 1 1 1 1 1 1 1 1 1 1 1 1 2 3 2 2 2 2 2 1 2 2 1 1 1 1 1 1 1 1 2 1 1 2 1 2 2 2 1 1
3 4 4 3 3 1 1 0 3 2 2 2 2 1 1 1 1 2 2 2 2 3 3 3 2 1 1 2 2 2 1 1 1 1 1 1 1 1 1 1 2 2 2 2 2 2 2 2 1
3 1 4 3 3 2 3 1 5 1 2 3 3 2 2 2 1 1 2 2 2 2 2 2 2 1 1 2 2 2 1 1 1 1 1 1 1 1 1 0 1 1 2 2 2 2 2 2 2
3 5 5 5 5 2 1 2 4 2 3 3 3 3 2 2 1 1 1 2 2 2 2 2 2 1 1 2 2 2 2 1 0 1 1 1 1 1 1 1 1 1 1 2 2 2 2 2 2
4 5 4 5 4 2 1 1 4 3 2 2 2 3 2 1 1 1 1 1 2 2 2 2 2 1 1 1 1 1 1 1 1 1 1 1 1 1 2 1 1 1 2 2 2 2 2 2 2
1 5 6 3 2 3 2 1 4 2 1 1 1 1 1 1 1 1 1 1 1 2 2 2 2 1 1 1 1 0 1 1 1 1 1 1 1 1 1 1 1 1 1 1 1 1 2 2 2
3 2 4 6 1 1 3 3 4 1 2 2 2 2 1 1 1 1 1 1 1 2 2 2 2 1 1 1 1 1 1 1 1 0 1 1 1 1 1 1 1 1 1 1 1 1 2 2 2
4 5 5 5 3 1 3 2 3 3 3 2 1 2 2 2 2 1 1 1 1 1 1 1 1 2 1 1 1 1 1 1 1 1 0 0 2 1 1 1 1 1 1 1 1 2 2 2 2
2 4 5 4 4 4 2 4 3 4 3 2 2 1 2 2 1 1 1 1 1 1 1 1 1 1 1 1 0 1 1 1 1 1 1 1 1 1 1 1 1 1 2 2 1 2 2 2 2
3 3 5 4 2 3 2 5 3 2 2 1 1 1 1 1 1 1 1 1 1 1 1 0 0 1 1 1 1 1 1 0 0 0 1 1 1 1 1 1 1 1 2 2 2 2 2 2 2
Wind_Direction
137 108 95 69 57 50 288 267 260 292 313 348 93 132 138 137 160 197 104 133 132 140 147 152 154 151 145 141 137 134 131 130 129 130 132 134 135 137 138 139 139 141 142 141 139 138 141 142 142
124 119 65 62 82 59 283 265 266 247 218 322 36 71 88 81 64 99 115 141 137 139 141 151 155 152 147 144 141 138 135 134 133 134 135 137 138 139 141 142 143 144 144 144 144 144 144 147 149
134 82 84 76 107 182 244 264 252 311 325 330 72 53 84 77 97 132 148 139 130 133 137 152 153 151 148 144 141 139 137 135 136 137 139 140 141 141 143 146 147 146 144 143 146 147 148 155 163
96 55 58 76 197 228 235 269 269 307 344 27 117 83 53 27 83 136 130 134 128 131 137 154 152 151 149 146 144 142 138 137 137 139 140 140 141 142 144 147 148 148 148 148 149 150 155 163 169
63 77 65 39 264 261 255 274 270 264 256 71 112 109 35 9 67 111 126 132 134 131 131 147 149 150 150 149 147 144 143 141 140 139 141 141 140 140 142 144 146 149 152 156 158 159 169 180 179
57 68 84 256 276 280 275 265 278 80 140 108 120 121 60 45 90 115 118 116 123 130 129 137 149 149 149 149 149 148 146 143 141 139 138 140 141 144 148 152 154 157 163 169 177 185 200 210 208
104 99 145 204 267 291 279 327 341 97 66 114 135 119 109 79 104 112 106 103 106 117 122 127 139 147 150 150 148 145 142 140 138 138 140 141 145 151 155 158 162 167 173 184 199 210 218 222 225
121 105 122 234 232 271 303 343 346 38 333 43 111 137 168 152 118 106 100 101 104 108 114 121 123 124 132 144 148 145 142 142 142 144 148 150 152 153 161 166 174 185 197 208 222 231 230 230 233
90 82 196 220 206 256 302 354 346 34 71 47 69 130 133 131 121 113 109 107 119 127 124 128 129 128 128 135 150 148 149 152 150 155 158 156 145 142 162 189 192 207 223 244 257 258 255 248 247
95 141 223 217 197 225 314 350 321 47 50 36 38 73 117 129 133 138 147 154 160 159 156 147 145 140 134 149 147 143 151 153 148 147 151 142 127 152 162 248 230 254 252 268 288 295 301 308 294
150 188 222 239 216 214 345 356 36 114 61 233 181 153 139 138 141 149 161 168 173 166 165 164 160 148 143 145 143 137 137 139 142 147 143 129 119 120 53 341 291 307 313 312 319 335 315 280 254
161 233 214 257 299 207 206 143 65 71 232 216 148 142 140 146 155 162 163 162 157 160 172 166 159 148 145 136 140 140 143 150 161 166 156 145 151 188 232 237 252 258 289 298 311 281 272 257 234
178 240 216 215 2 104 89 85 116 26 314 91 111 125 141 148 151 148 149 144 147 169 167 170 161 155 149 134 148 152 165 175 178 168 167 169 176 203 235 243 233 232 226 223 238 266 272 268 255
200 194 298 317 302 30 100 8 72 320 51 94 105 129 147 157 156 144 147 153 171 186 177 166 157 152 136 136 150 172 184 186 178 181 184 185 188 200 210 227 231 229 223 223 219 219 242 254 255
142 30 345 317 251 186 100 15 7 221 100 94 109 121 135 154 153 161 176 177 182 185 172 166 160 148 139 144 167 171 176 183 201 206 198 193 194 206 208 219 229 232 221 225 235 237 241 251 251
43 49 331 299 322 172 116 252 296 101 117 111 111 113 120 141 148 160 163 166 179 172 163 167 158 150 149 148 155 157 170 178 213 216 205 206 208 204 205 216 230 233 216 210 228 230 243 254 255
32 85 260 302 332 95 127 218 310 75 127 129 127 124 123 74 39 229 161 162 168 167 159 154 140 142 150 137 126 125 166 193 218 220 222 217 213 204 200 217 228 214 199 212 230 218 221 249 263
219 213 237 260 308 82 117 211 1 83 123 127 123 127 114 134 240 243 202 143 131 138 130 134 127 122 127 123 114 109 126 243 227 210 230 227 214 200 199 217 228 204 201 224 226 235 233 240 256
175 170 237 257 253 97 118 95 32 42 71 86 110 133 128 272 297 117 131 108 111 113 117 123 126 125 116 113 142 153 201 249 255 226 223 231 220 206 201 225 221 198 210 226 221 220 247 266 269
154 158 253 288 23 107 97 64 43 69 120 189 211 246 252 318 13 63 129 113 148 142 129 128 142 149 143 154 171 162 156 232 254 315 318 249 229 218 203 205 223 216 213 220 206 190 200 252 194
192 190 214 203 53 60 80 8 356 352 15 21 9 316 320 210 224 201 170 177 152 152 160 166 172 177 164 147 103 73 57 33 23 6 336 313 274 248 220 207 213 220 199 206 214 199 188 218 237
248 224 184 151 102 10 85 295 304 311 342 354 354 328 288 301 266 204 176 168 179 185 173 154 157 156 148 138 128 135 144 186 246 253 270 315 310 272 229 197 199 213 216 219 221 194 199 187 226
210 113 114 107 115 72 25 102 292 338 324 312 317 300 281 290 259 211 190 192 179 164 157 151 142 158 169 159 168 165 167 210 307 331 324 327 332 320 287 222 210 216 222 231 225 198 187 186 197
117 71 62 53 71 54 300 161 281 279 265 290 304 306 307 314 323 349 91 105 102 121 128 135 134 183 196 170 171 172 178 181 195 316 295 313 327 338 343 322 258 239 235 234 227 209 191 194 192
66 79 38 9 18 276 286 156 260 272 269 235 274 283 271 308 31 44 74 94 130 148 150 151 147 174 181 170 186 187 195 190 209 238 243 270 317 317 316 317 284 255 245 236 220 212 219 211 208
135 130 147 180 224 289 346 270 266 287 333 340 310 301 22 57 85 114 127 171 180 171 161 158 163 184 192 178 189 186 179 187 219 222 206 234 248 253 261 267 273 274 262 245 219 226 244 232 232
116 110 150 126 117 357 307 300 309 348 1 337 340 354 15 55 80 93 93 121 154 171 170 178 178 188 200 177 182 183 181 193 211 265 60 330 288 264 261 246 258 291 288 269 239 249 262 250 235
105 134 91 98 122 312 312 299 274 288 282 291 295 313 330 20 52 45 48 65 131 147 150 141 158 192 207 208 210 220 236 228 198 94 93 277 282 287 292 297 288 294 300 297 275 266 266 250 245
78 77 92 99 134 148 266 280 248 224 232 232 253 287 316 351 7 12 360 4 45 56 80 117 171 171 206 220 253 296 281 250 162 165 209 231 265 287 294 296 300 310 317 317 301 283 278 262 266
127 140 139 135 194 158 169 268 304 240 236 199 265 312 336 1 17 17 17 43 62 73 87 115 230 232 237 213 203 227 235 132 104 268 271 239 246 262 263 303 328 319 315 305 290 286 291 270 271